| time (UTC) | temp F | wind direction | speed MPH | gust MPH | rain 1hr in | rain 24hr in | rain mn in | humidity % | barometer mb |
| 20260507023800 | 63 | 318 | 1.0 | 4.0 | 0.00 | 0.00 | 0.00 | 72 | 1013.7 |
| 20260507023257 | 63 | 339 | 2.0 | 3.0 | 0.00 | 0.00 | 0.00 | 71 | 1013.7 |
| 20260507022754 | 64 | 27 | 2.0 | 2.0 | 0.00 | 0.00 | 0.00 | 69 | 1013.8 |
| 20260507022251 | 64 | 300 | 2.0 | 4.0 | 0.00 | 0.00 | 0.00 | 68 | 1013.9 |
| 20260507021747 | 64 | 31 | 2.0 | 4.0 | 0.00 | 0.00 | 0.00 | 67 | 1013.6 |
| 20260507021242 | 64 | 313 | 2.0 | 4.0 | 0.00 | 0.00 | 0.00 | 67 | 1013.7 |
| 20260507020741 | 64 | 3 | 1.0 | 4.0 | 0.00 | 0.00 | 0.00 | 65 | 1013.5 |
| 20260507020237 | 65 | 315 | 1.0 | 2.0 | 0.00 | 0.00 | 0.00 | 65 | 1013.5 |
| 20260507015735 | 65 | 28 | 2.0 | 3.0 | 0.00 | 0.00 | 0.00 | 65 | 1013.6 |
| 20260507015232 | 66 | 331 | 2.0 | 4.0 | 0.00 | 0.00 | 0.00 | 65 | 1013.5 |
| 20260507014728 | 66 | 5 | 2.0 | 3.0 | 0.00 | 0.00 | 0.00 | 64 | 1013.5 |
| 20260507014225 | 67 | 17 | 0.0 | 5.0 | 0.00 | 0.00 | 0.00 | 62 | 1013.4 |
| 20260507013721 | 67 | 0 | 2.0 | 3.0 | 0.00 | 0.00 | 0.00 | 62 | 1013.5 |
| 20260507013219 | 68 | 343 | 2.0 | 4.0 | 0.00 | 0.00 | 0.00 | 61 | 1013.5 |
| 20260507012716 | 68 | 359 | 1.0 | 4.0 | 0.00 | 0.00 | 0.00 | 60 | 1013.6 |
| 20260507012217 | 68 | 343 | 2.0 | 4.0 | 0.00 | 0.00 | 0.00 | 60 | 1013.4 |
| 20260507011715 | 69 | 350 | 1.0 | 3.0 | 0.00 | 0.00 | 0.00 | 59 | 1013.5 |
| 20260507011211 | 69 | 298 | 1.0 | 3.0 | 0.00 | 0.00 | 0.00 | 59 | 1013.5 |
| 20260507010710 | 69 | 310 | 2.0 | 5.0 | 0.00 | 0.00 | 0.00 | 60 | 1013.3 |
| 20260507010207 | 70 | 309 | 1.0 | 3.0 | 0.00 | 0.00 | 0.00 | 58 | 1013.4 |
| 20260507005705 | 70 | 269 | 2.0 | 4.0 | 0.00 | 0.00 | 0.00 | 58 | 1013.4 |
| 20260507005200 | 71 | 3 | 1.0 | 4.0 | 0.00 | 0.00 | 0.00 | 57 | 1013.4 |
| 20260507004657 | 71 | 17 | 2.0 | 3.0 | 0.00 | 0.00 | 0.00 | 57 | 1013.4 |
| 20260507004155 | 71 | 340 | 1.0 | 5.0 | 0.00 | 0.00 | 0.00 | 57 | 1013.3 |
| 20260507003651 | 71 | 295 | 4.0 | 4.0 | 0.00 | 0.00 | 0.00 | 58 | 1013.5 |
| 20260507003151 | 71 | 311 | 1.0 | 4.0 | 0.00 | 0.00 | 0.00 | 56 | 1013.4 |
| 20260507002648 | 72 | 349 | 2.0 | 7.0 | 0.00 | 0.00 | 0.00 | 55 | 1013.5 |
| 20260507002144 | 72 | 349 | 1.0 | 3.0 | 0.00 | 0.00 | 0.00 | 56 | 1013.5 |
| 20260507001641 | 71 | 13 | 2.0 | 4.0 | 0.00 | 0.00 | 0.00 | 56 | 1013.6 |
| 20260507001138 | 72 | 16 | 0.0 | 4.0 | 0.00 | 0.00 | 0.00 | 54 | 1013.5 |
| 20260507000634 | 72 | 274 | 3.0 | 7.0 | 0.00 | 0.00 | 0.00 | 54 | 1013.4 |
| 20260507000130 | 72 | 307 | 2.0 | 3.0 | 0.00 | 0.00 | 0.00 | 55 | 1013.4 |
| 20260506235628 | 72 | 16 | 2.0 | 4.0 | 0.00 | 0.00 | 0.00 | 54 | 1013.4 |
| 20260506235127 | 72 | 287 | 2.0 | 5.0 | 0.00 | 0.00 | 0.00 | 52 | 1013.4 |
| 20260506234625 | 73 | 23 | 3.0 | 4.0 | 0.00 | 0.00 | 0.00 | 51 | 1013.4 |
| 20260506234122 | 73 | 3 | 2.0 | 4.0 | 0.00 | 0.00 | 0.00 | 49 | 1013.4 |
| 20260506233619 | 73 | 2 | 1.0 | 4.0 | 0.00 | 0.00 | 0.00 | 50 | 1013.3 |
| 20260506233116 | 73 | 3 | 3.0 | 4.0 | 0.00 | 0.00 | 0.00 | 49 | 1013.5 |
| 20260506232612 | 74 | 9 | 2.0 | 4.0 | 0.00 | 0.00 | 0.00 | 49 | 1013.5 |
| 20260506232107 | 75 | 331 | 2.0 | 4.0 | 0.00 | 0.00 | 0.00 | 49 | 1013.4 |
| 20260506231605 | 74 | 319 | 2.0 | 3.0 | 0.00 | 0.00 | 0.00 | 50 | 1013.6 |
| 20260506231103 | 74 | 317 | 2.0 | 4.0 | 0.00 | 0.00 | 0.00 | 48 | 1013.4 |
| 20260506230559 | 74 | 335 | 3.0 | 3.0 | 0.00 | 0.00 | 0.00 | 48 | 1013.5 |
| 20260506230057 | 74 | 358 | 1.0 | 3.0 | 0.00 | 0.00 | 0.00 | 50 | 1013.5 |
| 20260506225553 | 73 | 2 | 2.0 | 3.0 | 0.00 | 0.00 | 0.00 | 49 | 1013.6 |
| 20260506225050 | 74 | 16 | 2.0 | 5.0 | 0.00 | 0.00 | 0.00 | 50 | 1013.5 |
| 20260506224547 | 73 | 312 | 1.0 | 4.0 | 0.00 | 0.00 | 0.00 | 50 | 1013.6 |
| 20260506224043 | 73 | 33 | 5.0 | 5.0 | 0.00 | 0.00 | 0.00 | 52 | 1013.8 |
| 20260506223539 | 73 | 359 | 3.0 | 5.0 | 0.00 | 0.00 | 0.00 | 51 | 1014.0 |
| 20260506223036 | 73 | 349 | 3.0 | 4.0 | 0.00 | 0.00 | 0.00 | 50 | 1013.8 |
| 20260506222533 | 74 | 25 | 2.0 | 4.0 | 0.00 | 0.00 | 0.00 | 51 | 1014.1 |
| 20260506222029 | 74 | 353 | 3.0 | 6.0 | 0.00 | 0.00 | 0.00 | 50 | 1014.0 |
| 20260506221527 | 74 | 353 | 3.0 | 4.0 | 0.00 | 0.00 | 0.00 | 50 | 1014.1 |
| 20260506221025 | 74 | 336 | 2.0 | 3.0 | 0.00 | 0.00 | 0.00 | 51 | 1014.2 |
| 20260506220520 | 74 | 351 | 2.0 | 4.0 | 0.00 | 0.00 | 0.00 | 51 | 1014.3 |
| 20260506220016 | 75 | 283 | 2.0 | 4.0 | 0.00 | 0.00 | 0.00 | 49 | 1014.3 |
| 20260506215513 | 74 | 37 | 3.0 | 3.0 | 0.00 | 0.00 | 0.00 | 50 | 1014.3 |
| 20260506215009 | 73 | 39 | 3.0 | 4.0 | 0.00 | 0.00 | 0.00 | 49 | 1014.5 |
| 20260506214506 | 73 | 0 | 2.0 | 4.0 | 0.00 | 0.00 | 0.00 | 51 | 1014.6 |
| 20260506214003 | 73 | 280 | 2.0 | 5.0 | 0.00 | 0.00 | 0.00 | 49 | 1014.5 |
| 20260506213501 | 73 | 326 | 3.0 | 4.0 | 0.00 | 0.00 | 0.00 | 50 | 1014.6 |
| 20260506212958 | 73 | 349 | 2.0 | 3.0 | 0.00 | 0.00 | 0.00 | 50 | 1014.5 |
| 20260506212454 | 74 | 285 | 2.0 | 5.0 | 0.00 | 0.00 | 0.00 | 49 | 1014.6 |
| 20260506211949 | 74 | 332 | 2.0 | 3.0 | 0.00 | 0.00 | 0.00 | 51 | 1014.8 |
| 20260506211445 | 74 | 265 | 1.0 | 3.0 | 0.00 | 0.00 | 0.00 | 49 | 1014.7 |
| 20260506210942 | 73 | 356 | 3.0 | 4.0 | 0.00 | 0.00 | 0.00 | 50 | 1014.8 |
| 20260506210439 | 74 | 334 | 2.0 | 4.0 | 0.00 | 0.00 | 0.00 | 49 | 1014.8 |
| 20260506205936 | 74 | 1 | 2.0 | 5.0 | 0.00 | 0.00 | 0.00 | 48 | 1014.9 |
| 20260506205432 | 74 | 315 | 2.0 | 5.0 | 0.00 | 0.00 | 0.00 | 49 | 1015.0 |
| 20260506204928 | 74 | 22 | 3.0 | 3.0 | 0.00 | 0.00 | 0.00 | 50 | 1014.8 |
| 20260506204426 | 74 | 1 | 2.0 | 4.0 | 0.00 | 0.00 | 0.00 | 49 | 1014.8 |
| 20260506203924 | 73 | 4 | 2.0 | 3.0 | 0.00 | 0.00 | 0.00 | 51 | 1015.0 |
| 20260506203420 | 74 | 8 | 3.0 | 4.0 | 0.00 | 0.00 | 0.00 | 49 | 1015.0 |
| 20260506202917 | 73 | 327 | 2.0 | 3.0 | 0.00 | 0.00 | 0.00 | 52 | 1015.0 |
| 20260506202415 | 73 | 15 | 2.0 | 3.0 | 0.00 | 0.00 | 0.00 | 51 | 1015.1 |
| 20260506201911 | 73 | 336 | 2.0 | 4.0 | 0.00 | 0.00 | 0.00 | 52 | 1015.2 |
| 20260506201409 | 73 | 23 | 2.0 | 3.0 | 0.00 | 0.00 | 0.00 | 53 | 1015.2 |
| 20260506200905 | 73 | 279 | 4.0 | 4.0 | 0.00 | 0.00 | 0.00 | 51 | 1015.2 |
| 20260506200401 | 74 | 346 | 1.0 | 4.0 | 0.00 | 0.00 | 0.00 | 52 | 1015.4 |
| 20260506195857 | 74 | 328 | 2.0 | 3.0 | 0.00 | 0.00 | 0.00 | 52 | 1015.3 |
| 20260506195355 | 74 | 58 | 2.0 | 3.0 | 0.00 | 0.00 | 0.00 | 50 | 1015.3 |
| 20260506194851 | 73 | 348 | 2.0 | 3.0 | 0.00 | 0.00 | 0.00 | 52 | 1015.3 |
| 20260506194348 | 72 | 356 | 2.0 | 3.0 | 0.00 | 0.00 | 0.00 | 53 | 1015.5 |
| 20260506193846 | 72 | 295 | 3.0 | 4.0 | 0.00 | 0.00 | 0.00 | 53 | 1015.4 |
| 20260506193343 | 71 | 333 | 3.0 | 4.0 | 0.00 | 0.00 | 0.00 | 53 | 1015.7 |
| 20260506192839 | 71 | 341 | 2.0 | 4.0 | 0.00 | 0.00 | 0.00 | 55 | 1015.5 |
| 20260506192336 | 71 | 335 | 2.0 | 4.0 | 0.00 | 0.00 | 0.00 | 54 | 1015.6 |
| 20260506191833 | 71 | 296 | 4.0 | 5.0 | 0.00 | 0.00 | 0.00 | 54 | 1015.7 |
| 20260506191329 | 72 | 4 | 2.0 | 4.0 | 0.00 | 0.00 | 0.00 | 54 | 1015.7 |
| 20260506190826 | 72 | 17 | 1.0 | 4.0 | 0.00 | 0.00 | 0.00 | 53 | 1015.8 |
| 20260506190322 | 71 | 349 | 1.0 | 3.0 | 0.00 | 0.00 | 0.00 | 55 | 1015.8 |
| 20260506185820 | 72 | 27 | 2.0 | 4.0 | 0.00 | 0.00 | 0.00 | 53 | 1015.9 |
| 20260506185316 | 71 | 356 | 2.0 | 4.0 | 0.00 | 0.00 | 0.00 | 55 | 1015.8 |
| 20260506184814 | 71 | 294 | 2.0 | 4.0 | 0.00 | 0.00 | 0.00 | 54 | 1015.8 |
| 20260506184311 | 72 | 321 | 2.0 | 3.0 | 0.00 | 0.00 | 0.00 | 54 | 1015.6 |
| 20260506183808 | 72 | 359 | 2.0 | 4.0 | 0.00 | 0.00 | 0.00 | 53 | 1016.0 |
| 20260506183303 | 72 | 338 | 1.0 | 3.0 | 0.00 | 0.00 | 0.00 | 53 | 1015.9 |
| 20260506182800 | 72 | 353 | 2.0 | 4.0 | 0.00 | 0.00 | 0.00 | 52 | 1015.9 |
| 20260506182257 | 72 | 339 | 1.0 | 2.0 | 0.00 | 0.00 | 0.00 | 53 | 1015.9 |
| 20260506181755 | 73 | 355 | 2.0 | 3.0 | 0.00 | 0.00 | 0.00 | 53 | 1016.0 |
| 20260506181253 | 73 | 317 | 1.0 | 2.0 | 0.00 | 0.00 | 0.00 | 52 | 1015.8 |
| 20260506180750 | 73 | 349 | 1.0 | 2.0 | 0.00 | 0.00 | 0.00 | 52 | 1015.9 |
| 20260506180245 | 73 | 9 | 2.0 | 3.0 | 0.00 | 0.00 | 0.00 | 52 | 1015.9 |
| 20260506175742 | 72 | 344 | 1.0 | 4.0 | 0.00 | 0.00 | 0.00 | 56 | 1015.9 |
| 20260506175239 | 72 | 66 | 4.0 | 4.0 | 0.00 | 0.00 | 0.00 | 55 | 1016.1 |
| 20260506174737 | 72 | 292 | 1.0 | 3.0 | 0.00 | 0.00 | 0.00 | 54 | 1016.0 |
| 20260506174233 | 73 | 329 | 2.0 | 2.0 | 0.00 | 0.00 | 0.00 | 52 | 1016.0 |
| 20260506173732 | 73 | 335 | 2.0 | 3.0 | 0.00 | 0.00 | 0.00 | 52 | 1015.9 |
| 20260506173228 | 72 | 318 | 2.0 | 2.0 | 0.00 | 0.00 | 0.00 | 54 | 1015.9 |
| 20260506172724 | 73 | 347 | 1.0 | 2.0 | 0.00 | 0.00 | 0.00 | 52 | 1016.0 |
| 20260506172221 | 72 | 299 | 2.0 | 2.0 | 0.00 | 0.00 | 0.00 | 53 | 1016.1 |
| 20260506171719 | 71 | 298 | 0.0 | 2.0 | 0.00 | 0.00 | 0.00 | 53 | 1015.9 |
| 20260506171216 | 71 | 5 | 1.0 | 2.0 | 0.00 | 0.00 | 0.00 | 55 | 1015.8 |
| 20260506170713 | 71 | 348 | 1.0 | 3.0 | 0.00 | 0.00 | 0.00 | 56 | 1015.9 |
| 20260506170210 | 70 | 311 | 2.0 | 2.0 | 0.00 | 0.00 | 0.00 | 56 | 1015.9 |
| 20260506165709 | 69 | 345 | 1.0 | 2.0 | 0.00 | 0.00 | 0.00 | 57 | 1015.9 |
| 20260506165205 | 68 | 341 | 1.0 | 2.0 | 0.00 | 0.00 | 0.00 | 60 | 1016.0 |
| 20260506164702 | 67 | 0 | 1.0 | 2.0 | 0.00 | 0.00 | 0.00 | 62 | 1015.7 |
| 20260506164159 | 66 | 342 | 0.0 | 1.0 | 0.00 | 0.00 | 0.00 | 65 | 1015.7 |
| 20260506163655 | 64 | 338 | 0.0 | 2.0 | 0.00 | 0.00 | 0.00 | 68 | 1015.9 |
| 20260506163151 | 64 | 10 | 2.0 | 2.0 | 0.00 | 0.00 | 0.00 | 70 | 1015.9 |
| 20260506162647 | 63 | 5 | 2.0 | 3.0 | 0.00 | 0.00 | 0.00 | 69 | 1015.9 |
| 20260506162144 | 62 | 5 | 1.0 | 3.0 | 0.00 | 0.00 | 0.00 | 70 | 1016.0 |
| 20260506161641 | 62 | 329 | 0.0 | 2.0 | 0.00 | 0.00 | 0.00 | 71 | 1015.9 |
| 20260506161138 | 61 | 355 | 0.0 | 2.0 | 0.00 | 0.00 | 0.00 | 73 | 1016.1 |
| 20260506160636 | 61 | 320 | 1.0 | 2.0 | 0.00 | 0.00 | 0.00 | 75 | 1016.0 |
| 20260506160133 | 60 | 315 | 2.0 | 2.0 | 0.00 | 0.00 | 0.00 | 76 | 1015.9 |
| 20260506155632 | 60 | 347 | 0.0 | 2.0 | 0.00 | 0.00 | 0.00 | 76 | 1015.9 |
| 20260506155129 | 59 | 340 | 1.0 | 2.0 | 0.00 | 0.00 | 0.00 | 82 | 1016.0 |
| 20260506153230 | 58 | 352 | 1.0 | 2.0 | 0.00 | 0.00 | 0.00 | 82 | 1016.1 |
| 20260506152727 | 58 | 338 | 1.0 | 2.0 | 0.00 | 0.00 | 0.00 | 83 | 1016.0 |
| 20260506152224 | 58 | 321 | 0.0 | 2.0 | 0.00 | 0.00 | 0.00 | 83 | 1016.0 |
| 20260506151724 | 58 | 327 | 0.0 | 2.0 | 0.00 | 0.00 | 0.00 | 84 | 1016.1 |
| 20260506151219 | 57 | 345 | 1.0 | 2.0 | 0.00 | 0.00 | 0.00 | 85 | 1016.0 |
| 20260506150716 | 57 | 354 | 0.0 | 2.0 | 0.00 | 0.00 | 0.00 | 85 | 1016.0 |
| 20260506150213 | 57 | 346 | 1.0 | 2.0 | 0.00 | 0.00 | 0.00 | 87 | 1015.9 |
| 20260506145710 | 56 | 321 | 1.0 | 2.0 | 0.00 | 0.00 | 0.00 | 87 | 1015.9 |
| 20260506145207 | 56 | 348 | 0.0 | 2.0 | 0.00 | 0.00 | 0.00 | 88 | 1016.2 |
| 20260506144704 | 55 | 9 | 1.0 | 2.0 | 0.00 | 0.00 | 0.00 | 88 | 1016.1 |
| 20260506144201 | 55 | 358 | 0.0 | 2.0 | 0.00 | 0.00 | 0.00 | 88 | 1016.2 |
| 20260506143659 | 55 | 320 | 1.0 | 2.0 | 0.00 | 0.00 | 0.00 | 89 | 1016.2 |
| 20260506143156 | 54 | 345 | 0.0 | 2.0 | 0.00 | 0.00 | 0.00 | 89 | 1016.1 |
| 20260506142655 | 54 | 341 | 1.0 | 2.0 | 0.00 | 0.00 | 0.00 | 90 | 1015.9 |
| 20260506142152 | 53 | 333 | 0.0 | 2.0 | 0.00 | 0.00 | 0.00 | 90 | 1016.0 |
| 20260506141649 | 53 | 344 | 1.0 | 2.0 | 0.00 | 0.00 | 0.00 | 90 | 1015.7 |
| 20260506141148 | 53 | 354 | 1.0 | 2.0 | 0.00 | 0.00 | 0.00 | 91 | 1015.9 |
| 20260506140645 | 53 | 333 | 1.0 | 2.0 | 0.00 | 0.00 | 0.00 | 91 | 1015.8 |
| 20260506140142 | 52 | 332 | 2.0 | 2.0 | 0.00 | 0.00 | 0.00 | 91 | 1015.8 |
| 20260506135639 | 52 | 352 | 1.0 | 1.0 | 0.00 | 0.00 | 0.00 | 92 | 1015.8 |
| 20260506135135 | 52 | 359 | 1.0 | 2.0 | 0.00 | 0.00 | 0.00 | 92 | 1015.7 |
| 20260506134632 | 51 | 358 | 1.0 | 2.0 | 0.00 | 0.00 | 0.00 | 92 | 1015.9 |
| 20260506134127 | 51 | 322 | 2.0 | 2.0 | 0.00 | 0.00 | 0.00 | 92 | 1015.7 |
| 20260506133625 | 51 | 343 | 1.0 | 2.0 | 0.00 | 0.00 | 0.00 | 92 | 1015.7 |
| 20260506133122 | 51 | 340 | 1.0 | 2.0 | 0.00 | 0.00 | 0.00 | 92 | 1015.6 |
| 20260506132619 | 51 | 350 | 1.0 | 2.0 | 0.00 | 0.00 | 0.00 | 91 | 1015.8 |
| 20260506132116 | 51 | 345 | 1.0 | 2.0 | 0.00 | 0.00 | 0.00 | 92 | 1015.6 |
| 20260506131613 | 51 | 339 | 1.0 | 2.0 | 0.00 | 0.00 | 0.00 | 92 | 1015.5 |
| 20260506131110 | 51 | 344 | 1.0 | 2.0 | 0.00 | 0.00 | 0.00 | 91 | 1015.8 |
| 20260506130607 | 51 | 349 | 1.0 | 2.0 | 0.00 | 0.00 | 0.00 | 91 | 1015.3 |
| 20260506130104 | 51 | 344 | 1.0 | 2.0 | 0.00 | 0.00 | 0.00 | 91 | 1015.4 |
| 20260506125603 | 51 | 337 | 1.0 | 2.0 | 0.00 | 0.00 | 0.00 | 91 | 1015.4 |
| 20260506125100 | 51 | 329 | 1.0 | 2.0 | 0.00 | 0.00 | 0.00 | 90 | 1015.2 |
| 20260506124557 | 51 | 350 | 1.0 | 2.0 | 0.00 | 0.00 | 0.00 | 90 | 1015.4 |
| 20260506124055 | 51 | 339 | 1.0 | 2.0 | 0.00 | 0.00 | 0.00 | 91 | 1015.0 |
| 20260506123552 | 51 | 22 | 0.0 | 2.0 | 0.00 | 0.00 | 0.00 | 91 | 1015.3 |
| 20260506123051 | 51 | 345 | 1.0 | 2.0 | 0.00 | 0.00 | 0.00 | 90 | 1015.1 |
| 20260506122547 | 51 | 348 | 1.0 | 2.0 | 0.00 | 0.00 | 0.00 | 90 | 1015.1 |
| 20260506122045 | 51 | 335 | 1.0 | 2.0 | 0.00 | 0.00 | 0.00 | 90 | 1015.1 |
| 20260506121542 | 51 | 350 | 1.0 | 2.0 | 0.00 | 0.00 | 0.00 | 90 | 1014.9 |
| 20260506121038 | 51 | 331 | 2.0 | 2.0 | 0.00 | 0.00 | 0.00 | 90 | 1014.9 |
| 20260506120537 | 51 | 343 | 1.0 | 2.0 | 0.00 | 0.00 | 0.00 | 90 | 1014.8 |
| 20260506120034 | 51 | 347 | 1.0 | 2.0 | 0.00 | 0.00 | 0.00 | 90 | 1014.9 |
| 20260506115532 | 51 | 1 | 2.0 | 2.0 | 0.00 | 0.00 | 0.00 | 90 | 1014.8 |
| 20260506115030 | 51 | 341 | 1.0 | 2.0 | 0.00 | 0.00 | 0.00 | 89 | 1014.8 |
| 20260506114527 | 51 | 337 | 1.0 | 2.0 | 0.00 | 0.00 | 0.00 | 89 | 1014.8 |
| 20260506114026 | 51 | 335 | 1.0 | 2.0 | 0.00 | 0.00 | 0.00 | 90 | 1014.8 |
| 20260506113523 | 51 | 344 | 1.0 | 2.0 | 0.00 | 0.00 | 0.00 | 90 | 1014.5 |
| 20260506113020 | 51 | 346 | 0.0 | 2.0 | 0.00 | 0.00 | 0.00 | 89 | 1014.6 |
| 20260506112516 | 52 | 345 | 1.0 | 2.0 | 0.00 | 0.00 | 0.00 | 90 | 1014.7 |
| 20260506112014 | 52 | 336 | 0.0 | 2.0 | 0.00 | 0.00 | 0.00 | 89 | 1014.9 |
| 20260506111512 | 52 | 0 | 2.0 | 2.0 | 0.00 | 0.00 | 0.00 | 89 | 1014.7 |
| 20260506111009 | 52 | 7 | 1.0 | 2.0 | 0.00 | 0.00 | 0.00 | 90 | 1014.7 |
| 20260506110507 | 52 | 19 | 1.0 | 2.0 | 0.00 | 0.00 | 0.00 | 90 | 1014.7 |
| 20260506110003 | 52 | 9 | 1.0 | 2.0 | 0.00 | 0.00 | 0.00 | 89 | 1014.9 |
| 20260506105459 | 52 | 344 | 1.0 | 2.0 | 0.00 | 0.00 | 0.00 | 89 | 1014.8 |
| 20260506104957 | 52 | 345 | 1.0 | 2.0 | 0.00 | 0.00 | 0.00 | 89 | 1014.8 |
| 20260506104455 | 52 | 341 | 1.0 | 2.0 | 0.00 | 0.00 | 0.00 | 89 | 1014.8 |
| 20260506103953 | 52 | 325 | 1.0 | 2.0 | 0.00 | 0.00 | 0.00 | 88 | 1014.8 |
| 20260506103449 | 52 | 343 | 1.0 | 2.0 | 0.00 | 0.00 | 0.00 | 89 | 1014.8 |
| 20260506102946 | 52 | 354 | 2.0 | 2.0 | 0.00 | 0.00 | 0.00 | 89 | 1014.8 |
| 20260506102444 | 52 | 342 | 1.0 | 2.0 | 0.00 | 0.00 | 0.00 | 89 | 1014.8 |
| 20260506101941 | 52 | 1 | 1.0 | 2.0 | 0.00 | 0.00 | 0.00 | 89 | 1014.8 |
| 20260506101438 | 52 | 1 | 1.0 | 1.0 | 0.00 | 0.00 | 0.00 | 88 | 1014.9 |
| 20260506100935 | 52 | 349 | 1.0 | 2.0 | 0.00 | 0.00 | 0.00 | 88 | 1014.8 |
| 20260506100433 | 53 | 340 | 1.0 | 2.0 | 0.00 | 0.00 | 0.00 | 88 | 1014.7 |
| 20260506095931 | 53 | 332 | 1.0 | 2.0 | 0.00 | 0.00 | 0.00 | 88 | 1014.9 |
| 20260506095429 | 53 | 16 | 0.0 | 2.0 | 0.00 | 0.00 | 0.00 | 88 | 1014.9 |
| 20260506094925 | 53 | 342 | 1.0 | 2.0 | 0.00 | 0.00 | 0.00 | 88 | 1014.7 |
| 20260506094424 | 53 | 348 | 0.0 | 2.0 | 0.00 | 0.00 | 0.00 | 87 | 1014.9 |
| 20260506093921 | 53 | 340 | 1.0 | 2.0 | 0.00 | 0.00 | 0.00 | 87 | 1015.0 |
| 20260506093419 | 53 | 347 | 1.0 | 1.0 | 0.00 | 0.00 | 0.00 | 87 | 1014.9 |
| 20260506092916 | 53 | 341 | 1.0 | 1.0 | 0.00 | 0.00 | 0.00 | 86 | 1014.8 |
| 20260506092414 | 53 | 3 | 1.0 | 2.0 | 0.00 | 0.00 | 0.00 | 86 | 1014.8 |
| 20260506091910 | 53 | 7 | 1.0 | 2.0 | 0.00 | 0.00 | 0.00 | 87 | 1014.8 |
| 20260506091409 | 53 | 341 | 1.0 | 2.0 | 0.00 | 0.00 | 0.00 | 87 | 1014.9 |
| 20260506090905 | 53 | 1 | 1.0 | 2.0 | 0.00 | 0.00 | 0.00 | 86 | 1015.0 |
| 20260506090403 | 53 | 339 | 1.0 | 2.0 | 0.00 | 0.00 | 0.00 | 86 | 1015.2 |
| 20260506085900 | 53 | 338 | 0.0 | 2.0 | 0.00 | 0.00 | 0.00 | 85 | 1015.1 |
| 20260506085356 | 53 | 333 | 2.0 | 2.0 | 0.00 | 0.00 | 0.00 | 85 | 1015.1 |
| 20260506084853 | 54 | 332 | 1.0 | 2.0 | 0.00 | 0.00 | 0.00 | 85 | 1015.3 |
| 20260506084349 | 54 | 346 | 0.0 | 2.0 | 0.00 | 0.00 | 0.00 | 86 | 1015.3 |
| 20260506083846 | 54 | 0 | 0.0 | 2.0 | 0.00 | 0.00 | 0.00 | 86 | 1015.0 |
| 20260506083344 | 54 | 333 | 1.0 | 2.0 | 0.00 | 0.00 | 0.00 | 84 | 1015.3 |
| 20260506082841 | 54 | 338 | 1.0 | 1.0 | 0.00 | 0.00 | 0.00 | 84 | 1015.1 |
| 20260506082337 | 54 | 317 | 1.0 | 2.0 | 0.00 | 0.00 | 0.00 | 84 | 1015.2 |
| 20260506081833 | 54 | 4 | 1.0 | 2.0 | 0.00 | 0.00 | 0.00 | 84 | 1015.3 |
| 20260506081332 | 54 | 2 | 0.0 | 2.0 | 0.00 | 0.00 | 0.00 | 84 | 1015.2 |
| 20260506080829 | 55 | 321 | 1.0 | 2.0 | 0.00 | 0.00 | 0.00 | 84 | 1015.3 |
| 20260506080325 | 55 | 355 | 0.0 | 2.0 | 0.00 | 0.00 | 0.00 | 84 | 1015.1 |
| 20260506073310 | 55 | 318 | 2.0 | 2.0 | 0.00 | 0.00 | 0.00 | 83 | 1015.4 |
| 20260506072806 | 55 | 335 | 2.0 | 2.0 | 0.00 | 0.00 | 0.00 | 83 | 1015.2 |
| 20260506072305 | 55 | 326 | 1.0 | 2.0 | 0.00 | 0.00 | 0.00 | 83 | 1015.3 |
| 20260506071801 | 55 | 347 | 1.0 | 2.0 | 0.00 | 0.00 | 0.00 | 82 | 1015.2 |
| 20260506071259 | 55 | 330 | 1.0 | 2.0 | 0.00 | 0.00 | 0.00 | 82 | 1015.1 |
| 20260506070756 | 55 | 339 | 1.0 | 2.0 | 0.00 | 0.00 | 0.00 | 82 | 1015.3 |
| 20260506070253 | 55 | 347 | 1.0 | 2.0 | 0.00 | 0.00 | 0.00 | 82 | 1015.0 |
| 20260506062230 | 56 | 341 | 1.0 | 2.0 | 0.00 | 0.00 | 0.00 | 80 | 1014.6 |
| 20260506061726 | 56 | 345 | 1.0 | 2.0 | 0.00 | 0.00 | 0.00 | 81 | 1014.7 |
| 20260506061224 | 56 | 345 | 1.0 | 1.0 | 0.00 | 0.00 | 0.00 | 80 | 1014.7 |
| 20260506060722 | 56 | 336 | 1.0 | 2.0 | 0.00 | 0.00 | 0.00 | 81 | 1014.7 |
| 20260506060219 | 56 | 348 | 1.0 | 2.0 | 0.00 | 0.00 | 0.00 | 80 | 1014.7 |
| 20260506051151 | 57 | 341 | 1.0 | 2.0 | 0.00 | 0.00 | 0.00 | 78 | 1014.2 |
| 20260506050649 | 57 | 337 | 1.0 | 2.0 | 0.00 | 0.00 | 0.00 | 78 | 1014.2 |
| 20260506050146 | 58 | 332 | 1.0 | 2.0 | 0.00 | 0.00 | 0.00 | 78 | 1014.1 |
| 20260506044637 | 58 | 0 | 1.0 | 1.0 | 0.00 | 0.00 | 0.00 | 78 | 1014.1 |
| 20260506044133 | 58 | 353 | 1.0 | 2.0 | 0.00 | 0.00 | 0.00 | 78 | 1013.8 |
| 20260506043631 | 58 | 12 | 1.0 | 2.0 | 0.00 | 0.00 | 0.00 | 77 | 1013.9 |
| 20260506043129 | 58 | 0 | 1.0 | 2.0 | 0.00 | 0.00 | 0.00 | 77 | 1013.7 |
| 20260506042627 | 59 | 316 | 1.0 | 2.0 | 0.00 | 0.00 | 0.00 | 76 | 1013.5 |
| 20260506042125 | 59 | 335 | 1.0 | 2.0 | 0.00 | 0.00 | 0.00 | 75 | 1013.6 |
| 20260506041624 | 59 | 359 | 1.0 | 2.0 | 0.00 | 0.00 | 0.00 | 74 | 1013.6 |
| 20260506041120 | 59 | 350 | 1.0 | 2.0 | 0.00 | 0.00 | 0.00 | 74 | 1013.6 |
| 20260506040618 | 59 | 346 | 0.0 | 2.0 | 0.00 | 0.00 | 0.00 | 74 | 1013.7 |
| 20260506040114 | 59 | 343 | 1.0 | 2.0 | 0.00 | 0.00 | 0.00 | 74 | 1013.4 |
| 20260506035611 | 60 | 331 | 2.0 | 2.0 | 0.00 | 0.00 | 0.00 | 74 | 1013.5 |
| 20260506035108 | 60 | 2 | 0.0 | 2.0 | 0.00 | 0.00 | 0.00 | 73 | 1013.5 |
| 20260506034605 | 60 | 344 | 1.0 | 2.0 | 0.00 | 0.00 | 0.00 | 73 | 1013.3 |
| 20260506034102 | 60 | 354 | 1.0 | 2.0 | 0.00 | 0.00 | 0.00 | 75 | 1013.1 |
| 20260506033559 | 60 | 329 | 2.0 | 2.0 | 0.00 | 0.00 | 0.00 | 72 | 1013.1 |
| 20260506033056 | 60 | 355 | 1.0 | 2.0 | 0.00 | 0.00 | 0.00 | 72 | 1013.0 |
| 20260506032553 | 61 | 338 | 1.0 | 2.0 | 0.00 | 0.00 | 0.00 | 71 | 1013.0 |
| 20260506032050 | 61 | 2 | 1.0 | 2.0 | 0.00 | 0.00 | 0.00 | 71 | 1012.9 |
| 20260506031548 | 61 | 345 | 1.0 | 2.0 | 0.00 | 0.00 | 0.00 | 70 | 1012.6 |
| 20260506031044 | 61 | 358 | 2.0 | 2.0 | 0.00 | 0.00 | 0.00 | 69 | 1012.5 |
| 20260506030543 | 61 | 353 | 1.0 | 2.0 | 0.00 | 0.00 | 0.00 | 69 | 1012.6 |
| 20260506030039 | 62 | 347 | 1.0 | 2.0 | 0.00 | 0.00 | 0.00 | 69 | 1012.6 |
| 20260506025537 | 62 | 334 | 1.0 | 2.0 | 0.00 | 0.00 | 0.00 | 68 | 1012.4 |
| 20260506025032 | 62 | 354 | 2.0 | 2.0 | 0.00 | 0.00 | 0.00 | 67 | 1012.4 |
| 20260506024530 | 62 | 337 | 2.0 | 4.0 | 0.00 | 0.00 | 0.00 | 68 | 1012.5 |
| 20260506024026 | 62 | 352 | 0.0 | 2.0 | 0.00 | 0.00 | 0.00 | 67 | 1012.4 |